| time (UTC) | temp C | wind direction | speed KPH | gust KPH | rain 1hr cm | rain 24hr cm | rain mn cm | humidity % | barometer mb |
| 20260502162609 | 20 | 95 | 0.0 | 0.0 | 0.00 | 0.23 | 0.23 | 82 | 1015.3 |
| 20260502162103 | 20 | 95 | 0.0 | 1.6 | 0.00 | 0.23 | 0.23 | 82 | 1015.4 |
| 20260502161558 | 21 | 95 | 0.0 | 1.6 | 0.00 | 0.23 | 0.23 | 82 | 1015.3 |
| 20260502161050 | 21 | 95 | 0.0 | 0.0 | 0.00 | 0.23 | 0.23 | 82 | 1015.5 |
| 20260502160544 | 21 | 95 | 0.0 | 0.0 | 0.00 | 0.23 | 0.23 | 82 | 1015.5 |
| 20260502151950 | 21 | 126 | 0.0 | 1.6 | 0.03 | 0.23 | 0.23 | 86 | 1016.3 |
| 20260502151444 | 21 | 126 | 0.0 | 1.6 | 0.03 | 0.23 | 0.23 | 85 | 1016.5 |
| 20260502150938 | 20 | 126 | 0.0 | 1.6 | 0.03 | 0.23 | 0.23 | 86 | 1016.5 |
| 20260502150439 | 20 | 126 | 0.0 | 1.6 | 0.03 | 0.23 | 0.23 | 87 | 1016.6 |
| 20260502130419 | 22 | 142 | 0.0 | 1.6 | 0.00 | 0.00 | 0.00 | 67 | 1017.9 |
| 20260502123418 | 24 | 186 | 3.2 | 8.0 | 0.00 | 0.00 | 0.00 | 58 | 1018.2 |
| 20260502122418 | 25 | 238 | 1.6 | 9.7 | 0.00 | 0.00 | 0.00 | 56 | 1018.1 |
| 20260502121915 | 25 | 182 | 1.6 | 9.7 | 0.00 | 0.00 | 0.00 | 57 | 1018.1 |
| 20260502121409 | 25 | 181 | 1.6 | 12.9 | 0.00 | 0.00 | 0.00 | 58 | 1018.1 |
| 20260502120356 | 25 | 121 | 1.6 | 11.3 | 0.00 | 0.00 | 0.00 | 56 | 1018.3 |
| 20260502115849 | 25 | 245 | 1.6 | 8.0 | 0.00 | 0.00 | 0.00 | 55 | 1018.4 |
| 20260502115351 | 25 | 236 | 3.2 | 8.0 | 0.00 | 0.00 | 0.00 | 55 | 1018.3 |
| 20260502114838 | 24 | 169 | 3.2 | 9.7 | 0.00 | 0.00 | 0.00 | 58 | 1018.3 |
| 20260502114331 | 24 | 173 | 1.6 | 9.7 | 0.00 | 0.00 | 0.00 | 60 | 1018.4 |
| 20260502113825 | 24 | 207 | 1.6 | 8.0 | 0.00 | 0.00 | 0.00 | 58 | 1018.5 |
| 20260502113319 | 24 | 189 | 3.2 | 14.5 | 0.00 | 0.00 | 0.00 | 57 | 1018.6 |
| 20260502112813 | 23 | 159 | 3.2 | 14.5 | 0.00 | 0.00 | 0.00 | 59 | 1018.9 |
| 20260502112307 | 23 | 181 | 3.2 | 11.3 | 0.00 | 0.00 | 0.00 | 58 | 1018.8 |
| 20260502111801 | 23 | 182 | 3.2 | 14.5 | 0.00 | 0.00 | 0.00 | 59 | 1018.8 |
| 20260502110749 | 23 | 183 | 3.2 | 12.9 | 0.00 | 0.00 | 0.00 | 61 | 1019.0 |
| 20260502110243 | 23 | 165 | 3.2 | 12.9 | 0.00 | 0.00 | 0.00 | 59 | 1019.1 |
| 20260502105737 | 23 | 169 | 3.2 | 9.7 | 0.00 | 0.00 | 0.00 | 61 | 1019.0 |
| 20260502105231 | 22 | 203 | 3.2 | 9.7 | 0.00 | 0.00 | 0.00 | 60 | 1019.1 |
| 20260502104725 | 22 | 178 | 1.6 | 8.0 | 0.00 | 0.00 | 0.00 | 61 | 1019.1 |
| 20260502104219 | 22 | 171 | 4.8 | 11.3 | 0.00 | 0.00 | 0.00 | 64 | 1019.0 |
| 20260502103215 | 22 | 153 | 4.8 | 14.5 | 0.00 | 0.00 | 0.00 | 59 | 1019.2 |
| 20260502102703 | 22 | 186 | 4.8 | 14.5 | 0.00 | 0.00 | 0.00 | 59 | 1019.2 |
| 20260502102156 | 22 | 139 | 3.2 | 9.7 | 0.00 | 0.00 | 0.00 | 61 | 1019.1 |
| 20260502101649 | 22 | 255 | 3.2 | 9.7 | 0.00 | 0.00 | 0.00 | 60 | 1019.2 |
| 20260502101143 | 22 | 188 | 3.2 | 11.3 | 0.00 | 0.00 | 0.00 | 61 | 1019.2 |
| 20260502100637 | 22 | 162 | 3.2 | 11.3 | 0.00 | 0.00 | 0.00 | 62 | 1019.5 |
| 20260502100131 | 22 | 193 | 1.6 | 6.4 | 0.00 | 0.00 | 0.00 | 64 | 1019.4 |
| 20260502091031 | 20 | 167 | 1.6 | 6.4 | 0.00 | 0.00 | 0.00 | 64 | 1019.7 |
| 20260502090533 | 20 | 167 | 1.6 | 6.4 | 0.00 | 0.00 | 0.00 | 63 | 1019.5 |
| 20260502071315 | 15 | 119 | 0.0 | 3.2 | 0.00 | 0.00 | 0.00 | 70 | 1019.7 |
| 20260502070808 | 15 | 101 | 0.0 | 3.2 | 0.00 | 0.00 | 0.00 | 71 | 1019.8 |
| 20260502070312 | 15 | 117 | 0.0 | 3.2 | 0.00 | 0.00 | 0.00 | 70 | 1019.7 |
| 20260502065756 | 15 | 129 | 0.0 | 3.2 | 0.00 | 0.00 | 0.00 | 69 | 1019.7 |
| 20260502064743 | 15 | 109 | 0.0 | 6.4 | 0.00 | 0.00 | 0.00 | 70 | 1019.7 |
| 20260502064237 | 14 | 162 | 0.0 | 6.4 | 0.00 | 0.00 | 0.00 | 72 | 1019.7 |
| 20260502062719 | 13 | 131 | 0.0 | 3.2 | 0.00 | 0.00 | 0.00 | 71 | 1019.7 |
| 20260502062215 | 13 | 157 | 0.0 | 3.2 | 0.00 | 0.00 | 0.00 | 74 | 1019.8 |
| 20260502061714 | 13 | 157 | 1.6 | 3.2 | 0.00 | 0.00 | 0.00 | 73 | 1019.8 |
| 20260502061206 | 12 | 157 | 0.0 | 3.2 | 0.00 | 0.00 | 0.00 | 74 | 1019.7 |
| 20260502060706 | 12 | 136 | 1.6 | 4.8 | 0.00 | 0.00 | 0.00 | 75 | 1019.8 |
| 20260502060207 | 12 | 126 | 1.6 | 4.8 | 0.00 | 0.00 | 0.00 | 75 | 1019.7 |
| 20260502055708 | 12 | 147 | 0.0 | 3.2 | 0.00 | 0.00 | 0.00 | 76 | 1019.6 |
| 20260502055206 | 12 | 147 | 0.0 | 6.4 | 0.00 | 0.00 | 0.00 | 76 | 1019.6 |
| 20260502054706 | 11 | 147 | 0.0 | 6.4 | 0.00 | 0.00 | 0.00 | 77 | 1019.6 |
| 20260502054205 | 11 | 119 | 0.0 | 1.6 | 0.00 | 0.00 | 0.00 | 78 | 1019.4 |
| 20260502053704 | 11 | 119 | 0.0 | 1.6 | 0.00 | 0.00 | 0.00 | 79 | 1019.4 |
| 20260502053203 | 10 | 119 | 0.0 | 1.6 | 0.00 | 0.00 | 0.00 | 77 | 1019.5 |
| 20260502052702 | 10 | 119 | 0.0 | 3.2 | 0.00 | 0.00 | 0.00 | 77 | 1019.6 |
| 20260502052203 | 10 | 119 | 0.0 | 3.2 | 0.00 | 0.00 | 0.00 | 77 | 1019.6 |
| 20260502051659 | 10 | 119 | 0.0 | 1.6 | 0.00 | 0.00 | 0.00 | 77 | 1019.6 |
| 20260502051202 | 10 | 119 | 0.0 | 0.0 | 0.00 | 0.00 | 0.00 | 76 | 1019.6 |
| 20260502050700 | 10 | 119 | 0.0 | 0.0 | 0.00 | 0.00 | 0.00 | 77 | 1019.6 |
| 20260502050200 | 10 | 119 | 0.0 | 1.6 | 0.00 | 0.00 | 0.00 | 76 | 1019.5 |
| 20260502045656 | 10 | 119 | 0.0 | 1.6 | 0.00 | 0.00 | 0.00 | 76 | 1019.5 |
| 20260502045156 | 10 | 119 | 0.0 | 0.0 | 0.00 | 0.00 | 0.00 | 76 | 1019.5 |
| 20260502044657 | 10 | 119 | 0.0 | 0.0 | 0.00 | 0.00 | 0.00 | 76 | 1019.6 |
| 20260502044156 | 10 | 119 | 0.0 | 0.0 | 0.00 | 0.00 | 0.00 | 76 | 1019.5 |
| 20260502043657 | 10 | 119 | 0.0 | 1.6 | 0.00 | 0.00 | 0.00 | 75 | 1019.4 |
| 20260502043156 | 10 | 119 | 0.0 | 1.6 | 0.00 | 0.00 | 0.00 | 75 | 1019.5 |
| 20260502042657 | 10 | 119 | 0.0 | 1.6 | 0.00 | 0.00 | 0.00 | 75 | 1019.5 |
| 20260502042156 | 10 | 119 | 0.0 | 3.2 | 0.00 | 0.00 | 0.00 | 75 | 1019.6 |
| 20260502041659 | 10 | 119 | 0.0 | 3.2 | 0.00 | 0.00 | 0.00 | 74 | 1019.7 |
| 20260502041152 | 10 | 119 | 0.0 | 1.6 | 0.00 | 0.00 | 0.00 | 74 | 1019.7 |
| 20260502040652 | 10 | 119 | 0.0 | 3.2 | 0.00 | 0.00 | 0.00 | 74 | 1019.7 |
| 20260502040153 | 10 | 119 | 0.0 | 3.2 | 0.00 | 0.00 | 0.00 | 74 | 1019.6 |
| 20260502035652 | 10 | 119 | 0.0 | 3.2 | 0.00 | 0.00 | 0.00 | 74 | 1019.8 |
| 20260502035151 | 10 | 117 | 0.0 | 3.2 | 0.00 | 0.00 | 0.00 | 74 | 1019.7 |
| 20260502034155 | 10 | 118 | 0.0 | 3.2 | 0.00 | 0.00 | 0.00 | 74 | 1019.8 |
| 20260502033154 | 10 | 109 | 1.6 | 3.2 | 0.00 | 0.00 | 0.00 | 72 | 1019.8 |
| 20260502032144 | 10 | 105 | 1.6 | 4.8 | 0.00 | 0.00 | 0.00 | 72 | 1019.8 |
| 20260502031638 | 10 | 107 | 1.6 | 4.8 | 0.00 | 0.00 | 0.00 | 72 | 1019.8 |
| 20260502031130 | 10 | 128 | 0.0 | 1.6 | 0.00 | 0.00 | 0.00 | 72 | 1019.9 |
| 20260502030623 | 10 | 128 | 0.0 | 3.2 | 0.00 | 0.00 | 0.00 | 72 | 1019.9 |
| 20260502030119 | 10 | 128 | 0.0 | 3.2 | 0.00 | 0.00 | 0.00 | 72 | 1020.0 |
| 20260502025105 | 10 | 128 | 0.0 | 3.2 | 0.00 | 0.00 | 0.00 | 72 | 1020.1 |
| 20260502024559 | 10 | 128 | 0.0 | 3.2 | 0.00 | 0.00 | 0.00 | 71 | 1020.1 |
| 20260502024054 | 10 | 128 | 0.0 | 3.2 | 0.00 | 0.00 | 0.00 | 71 | 1020.2 |
| 20260502023550 | 10 | 132 | 0.0 | 1.6 | 0.00 | 0.00 | 0.00 | 71 | 1020.2 |
| 20260502022535 | 10 | 132 | 0.0 | 1.6 | 0.00 | 0.00 | 0.00 | 70 | 1020.3 |
| 20260502022030 | 11 | 132 | 0.0 | 1.6 | 0.00 | 0.00 | 0.00 | 69 | 1020.3 |
| 20260502021523 | 11 | 132 | 0.0 | 3.2 | 0.00 | 0.00 | 0.00 | 68 | 1020.3 |
| 20260502021017 | 11 | 132 | 0.0 | 3.2 | 0.00 | 0.00 | 0.00 | 67 | 1020.4 |
| 20260502020009 | 11 | 132 | 0.0 | 3.2 | 0.00 | 0.00 | 0.00 | 67 | 1020.5 |
| 20260502014953 | 11 | 132 | 0.0 | 3.2 | 0.00 | 0.00 | 0.00 | 67 | 1020.5 |
| 20260502014446 | 11 | 132 | 0.0 | 3.2 | 0.00 | 0.00 | 0.00 | 67 | 1020.5 |
| 20260502013941 | 11 | 132 | 0.0 | 3.2 | 0.00 | 0.00 | 0.00 | 67 | 1020.4 |
| 20260502013433 | 11 | 132 | 0.0 | 3.2 | 0.00 | 0.00 | 0.00 | 67 | 1020.4 |
| 20260502012927 | 11 | 111 | 0.0 | 3.2 | 0.00 | 0.00 | 0.00 | 67 | 1020.4 |
| 20260502012421 | 11 | 115 | 0.0 | 3.2 | 0.00 | 0.00 | 0.00 | 67 | 1020.4 |
| 20260502011915 | 11 | 119 | 0.0 | 3.2 | 0.00 | 0.00 | 0.00 | 66 | 1020.4 |
| 20260502011410 | 11 | 119 | 0.0 | 3.2 | 0.00 | 0.00 | 0.00 | 66 | 1020.5 |
| 20260502010903 | 11 | 119 | 0.0 | 1.6 | 0.00 | 0.00 | 0.00 | 66 | 1020.5 |
| 20260502010359 | 11 | 119 | 0.0 | 3.2 | 0.00 | 0.00 | 0.00 | 66 | 1020.6 |
| 20260502005852 | 11 | 119 | 0.0 | 3.2 | 0.00 | 0.00 | 0.00 | 65 | 1020.7 |
| 20260502005345 | 11 | 119 | 0.0 | 1.6 | 0.00 | 0.00 | 0.00 | 65 | 1020.7 |
| 20260502004840 | 12 | 119 | 0.0 | 1.6 | 0.00 | 0.00 | 0.00 | 64 | 1020.7 |
| 20260502003827 | 12 | 119 | 0.0 | 1.6 | 0.00 | 0.00 | 0.00 | 62 | 1020.9 |
| 20260502003322 | 12 | 119 | 0.0 | 1.6 | 0.00 | 0.00 | 0.00 | 62 | 1021.0 |
| 20260502002816 | 12 | 119 | 1.6 | 3.2 | 0.00 | 0.00 | 0.00 | 62 | 1021.0 |
| 20260502002309 | 12 | 119 | 1.6 | 3.2 | 0.00 | 0.00 | 0.00 | 62 | 1021.1 |
| 20260502001811 | 13 | 119 | 0.0 | 3.2 | 0.00 | 0.00 | 0.00 | 61 | 1021.1 |
| 20260502001259 | 13 | 119 | 0.0 | 3.2 | 0.00 | 0.00 | 0.00 | 61 | 1021.2 |
| 20260502000752 | 13 | 118 | 0.0 | 4.8 | 0.00 | 0.00 | 0.00 | 60 | 1021.2 |
| 20260502000248 | 13 | 111 | 0.0 | 4.8 | 0.00 | 0.00 | 0.00 | 60 | 1021.3 |
| 20260501235234 | 13 | 115 | 0.0 | 3.2 | 0.00 | 0.00 | 0.00 | 60 | 1021.4 |
| 20260501234728 | 13 | 115 | 0.0 | 4.8 | 0.00 | 0.00 | 0.00 | 59 | 1021.4 |
| 20260501234221 | 13 | 111 | 0.0 | 4.8 | 0.00 | 0.00 | 0.00 | 59 | 1021.4 |
| 20260501233726 | 13 | 157 | 0.0 | 3.2 | 0.00 | 0.00 | 0.00 | 59 | 1021.6 |
| 20260501233209 | 13 | 137 | 0.0 | 3.2 | 0.00 | 0.00 | 0.00 | 58 | 1021.7 |
| 20260501232704 | 14 | 165 | 0.0 | 3.2 | 0.00 | 0.00 | 0.00 | 58 | 1021.7 |
| 20260501232158 | 14 | 165 | 0.0 | 3.2 | 0.00 | 0.00 | 0.00 | 58 | 1021.8 |
| 20260501231700 | 14 | 149 | 0.0 | 8.0 | 0.00 | 0.00 | 0.00 | 58 | 1021.8 |
| 20260501230639 | 14 | 180 | 1.6 | 6.4 | 0.00 | 0.00 | 0.00 | 58 | 1021.9 |
| 20260501230134 | 14 | 174 | 1.6 | 8.0 | 0.00 | 0.00 | 0.00 | 57 | 1021.9 |
| 20260501225628 | 14 | 175 | 1.6 | 8.0 | 0.00 | 0.00 | 0.00 | 58 | 1021.9 |
| 20260501225123 | 14 | 178 | 1.6 | 4.8 | 0.00 | 0.00 | 0.00 | 57 | 1021.8 |
| 20260501224109 | 14 | 148 | 0.0 | 4.8 | 0.00 | 0.00 | 0.00 | 57 | 1021.9 |
| 20260501223605 | 14 | 161 | 0.0 | 4.8 | 0.00 | 0.00 | 0.00 | 57 | 1021.8 |
| 20260501223059 | 15 | 153 | 0.0 | 4.8 | 0.00 | 0.00 | 0.00 | 57 | 1022.0 |
| 20260501222551 | 15 | 128 | 0.0 | 3.2 | 0.00 | 0.00 | 0.00 | 56 | 1021.9 |
| 20260501222045 | 15 | 142 | 0.0 | 4.8 | 0.00 | 0.00 | 0.00 | 56 | 1021.8 |
| 20260501221542 | 15 | 172 | 1.6 | 8.0 | 0.00 | 0.00 | 0.00 | 56 | 1021.8 |
| 20260501221034 | 14 | 188 | 1.6 | 8.0 | 0.00 | 0.00 | 0.00 | 56 | 1021.8 |
| 20260501220021 | 14 | 188 | 1.6 | 4.8 | 0.00 | 0.00 | 0.00 | 57 | 1021.9 |
| 20260501215517 | 14 | 188 | 1.6 | 6.4 | 0.00 | 0.00 | 0.00 | 56 | 1021.9 |
| 20260501215010 | 14 | 188 | 1.6 | 6.4 | 0.00 | 0.00 | 0.00 | 56 | 1021.8 |
| 20260501214504 | 15 | 188 | 1.6 | 6.4 | 0.00 | 0.00 | 0.00 | 56 | 1021.8 |
| 20260501213958 | 15 | 179 | 1.6 | 4.8 | 0.00 | 0.00 | 0.00 | 56 | 1021.8 |
| 20260501213452 | 15 | 179 | 1.6 | 4.8 | 0.00 | 0.00 | 0.00 | 55 | 1021.8 |
| 20260501212945 | 15 | 179 | 1.6 | 4.8 | 0.00 | 0.00 | 0.00 | 55 | 1021.8 |
| 20260501212439 | 15 | 179 | 1.6 | 4.8 | 0.00 | 0.00 | 0.00 | 54 | 1021.8 |
| 20260501211428 | 15 | 179 | 0.0 | 4.8 | 0.00 | 0.00 | 0.00 | 53 | 1021.9 |
| 20260501210921 | 16 | 179 | 1.6 | 6.4 | 0.00 | 0.00 | 0.00 | 53 | 1021.9 |
| 20260501205910 | 16 | 179 | 1.6 | 6.4 | 0.00 | 0.00 | 0.00 | 51 | 1022.0 |
| 20260501205405 | 16 | 179 | 1.6 | 6.4 | 0.00 | 0.00 | 0.00 | 51 | 1022.0 |
| 20260501204857 | 16 | 164 | 1.6 | 3.2 | 0.00 | 0.00 | 0.00 | 50 | 1022.1 |
| 20260501204353 | 16 | 140 | 1.6 | 4.8 | 0.00 | 0.00 | 0.00 | 50 | 1022.0 |
| 20260501203849 | 16 | 113 | 1.6 | 6.4 | 0.00 | 0.00 | 0.00 | 50 | 1022.1 |
| 20260501203340 | 16 | 117 | 1.6 | 6.4 | 0.00 | 0.00 | 0.00 | 49 | 1022.1 |
| 20260501202836 | 16 | 113 | 1.6 | 3.2 | 0.00 | 0.00 | 0.00 | 50 | 1022.1 |
| 20260501201823 | 16 | 100 | 0.0 | 4.8 | 0.00 | 0.00 | 0.00 | 50 | 1022.1 |
| 20260501201317 | 16 | 154 | 0.0 | 4.8 | 0.00 | 0.00 | 0.00 | 50 | 1022.1 |
| 20260501200812 | 16 | 166 | 0.0 | 3.2 | 0.00 | 0.00 | 0.00 | 50 | 1022.1 |
| 20260501200307 | 17 | 119 | 0.0 | 3.2 | 0.00 | 0.00 | 0.00 | 49 | 1022.0 |
| 20260501195758 | 17 | 118 | 0.0 | 3.2 | 0.00 | 0.00 | 0.00 | 49 | 1022.0 |
| 20260501195251 | 17 | 118 | 0.0 | 3.2 | 0.00 | 0.00 | 0.00 | 48 | 1022.0 |
| 20260501194745 | 17 | 98 | 1.6 | 6.4 | 0.00 | 0.00 | 0.00 | 48 | 1021.9 |
| 20260501193733 | 17 | 113 | 1.6 | 8.0 | 0.00 | 0.00 | 0.00 | 47 | 1021.9 |
| 20260501193228 | 17 | 119 | 1.6 | 3.2 | 0.00 | 0.00 | 0.00 | 48 | 1021.9 |
| 20260501192721 | 17 | 116 | 1.6 | 3.2 | 0.00 | 0.00 | 0.00 | 48 | 1022.0 |
| 20260501191709 | 17 | 156 | 1.6 | 4.8 | 0.00 | 0.00 | 0.00 | 48 | 1021.9 |
| 20260501190657 | 17 | 113 | 0.0 | 3.2 | 0.00 | 0.00 | 0.00 | 47 | 1021.9 |
| 20260501190152 | 18 | 112 | 0.0 | 3.2 | 0.00 | 0.00 | 0.00 | 47 | 1021.9 |
| 20260501185645 | 18 | 112 | 0.0 | 3.2 | 0.00 | 0.00 | 0.00 | 47 | 1021.9 |
| 20260501184634 | 18 | 113 | 0.0 | 4.8 | 0.00 | 0.00 | 0.00 | 47 | 1022.1 |
| 20260501184130 | 18 | 111 | 1.6 | 4.8 | 0.00 | 0.00 | 0.00 | 45 | 1022.0 |
| 20260501183627 | 19 | 114 | 1.6 | 3.2 | 0.00 | 0.00 | 0.00 | 46 | 1022.0 |
| 20260501183127 | 19 | 104 | 0.0 | 3.2 | 0.00 | 0.00 | 0.00 | 45 | 1022.0 |
| 20260501182628 | 19 | 111 | 0.0 | 3.2 | 0.00 | 0.00 | 0.00 | 45 | 1022.0 |
| 20260501182123 | 20 | 111 | 0.0 | 3.2 | 0.00 | 0.00 | 0.00 | 44 | 1021.9 |
| 20260501181119 | 20 | 90 | 1.6 | 6.4 | 0.00 | 0.00 | 0.00 | 43 | 1021.9 |
| 20260501180118 | 20 | 85 | 1.6 | 9.7 | 0.00 | 0.00 | 0.00 | 43 | 1022.0 |
| 20260501175618 | 20 | 93 | 1.6 | 6.4 | 0.00 | 0.00 | 0.00 | 43 | 1021.9 |
| 20260501175116 | 21 | 108 | 1.6 | 6.4 | 0.00 | 0.00 | 0.00 | 43 | 1021.9 |
| 20260501174619 | 21 | 98 | 1.6 | 4.8 | 0.00 | 0.00 | 0.00 | 41 | 1021.8 |
| 20260501174117 | 21 | 102 | 1.6 | 11.3 | 0.00 | 0.00 | 0.00 | 41 | 1021.8 |
| 20260501173616 | 21 | 94 | 1.6 | 11.3 | 0.00 | 0.00 | 0.00 | 41 | 1021.8 |
| 20260501173113 | 21 | 101 | 1.6 | 8.0 | 0.00 | 0.00 | 0.00 | 41 | 1021.8 |
| 20260501172615 | 21 | 87 | 3.2 | 8.0 | 0.00 | 0.00 | 0.00 | 40 | 1021.8 |
| 20260501172114 | 22 | 87 | 3.2 | 4.8 | 0.00 | 0.00 | 0.00 | 39 | 1021.8 |
| 20260501171613 | 22 | 118 | 3.2 | 9.7 | 0.00 | 0.00 | 0.00 | 39 | 1021.9 |
| 20260501171113 | 22 | 89 | 3.2 | 9.7 | 0.00 | 0.00 | 0.00 | 37 | 1022.0 |
| 20260501170115 | 23 | 109 | 3.2 | 9.7 | 0.00 | 0.00 | 0.00 | 36 | 1022.0 |
| 20260501165613 | 23 | 82 | 3.2 | 9.7 | 0.00 | 0.00 | 0.00 | 36 | 1021.9 |
| 20260501165113 | 24 | 87 | 3.2 | 9.7 | 0.00 | 0.00 | 0.00 | 36 | 1021.9 |
| 20260501164610 | 24 | 92 | 3.2 | 12.9 | 0.00 | 0.00 | 0.00 | 37 | 1021.9 |
| 20260501164110 | 24 | 115 | 3.2 | 12.9 | 0.00 | 0.00 | 0.00 | 35 | 1022.1 |
| 20260501163610 | 24 | 110 | 3.2 | 11.3 | 0.00 | 0.00 | 0.00 | 36 | 1022.1 |